Regional Weather Roundup
Issued by NWS Cleveland, OH

Home | Current Version | Previous Version | Graphics & Text | Print | Product List | Glossary On
Versions: 1 2 3 4 5 6 7 8 9 10 11 12 13 14 15 16 17 18 19 20 21 22 23 24 25 26 27 28 29 30 31 32 33 34 35 36 37 38 39 40 41 42 43 44 45 46 47 48 49 50
000
ASUS41 KCLE 310500
RWRCLE
OHIO REGIONAL WEATHER ROUNDUP
NATIONAL WEATHER SERVICE WILMINGTON, OH
100 AM EDT MON AUG 31 2015

NOTE: "FAIR" INDICATES FEW OR NO CLOUDS BELOW 12,000 FEET WITH NO
SIGNIFICANT WEATHER AND/OR OBSTRUCTIONS TO VISIBILITY.

OHZ001>008-015>018-024>027-034-035-043-044-310600-
   NORTHWEST OHIO

CITY           SKY/WX    TMP DP  RH WIND       PRES   REMARKS
DEFIANCE       CLEAR     71  68  90 CALM      30.06R FOG
FINDLAY        CLEAR     68  64  87 S5        30.05S
TOLEDO EXPRESS CLEAR     67  66  97 CALM      30.05R FOG
TOLEDO EXEC    CLEAR     71  66  84 CALM      30.06R
LIMA           CLEAR     69  65  86 S6        30.08R
$$

OHZ009>014-019>023-028>033-038-089-310600-
   NORTHEAST OHIO

CITY           SKY/WX    TMP DP  RH WIND       PRES   REMARKS
CLE-HOPKINS    MOCLDY    72  63  73 S9        30.08S
CLE-LAKEFRONT  CLEAR     76  63  64 S10       30.04S
CUY CO. ARPT   NOT AVBL
LORAIN-ELYRIA  MOCLDY    69  64  84 SW6       30.07S
ASHTABULA      PTCLDY    68  67  96 S6        30.07S
AKRON-CANTON   CLOUDY    70  64  81 SW7       30.09F
WOOSTER        NOT AVBL
MANSFIELD      MOCLDY    69  65  86 S6        30.09F
YOUNGSTOWN     MOCLDY    71  65  81 SW8       30.09S
$$

OHZ042-051>053-060>062-070>072-077>081-310600-
  SOUTHWEST OHIO

CITY           SKY/WX    TMP DP  RH WIND       PRES   REMARKS
CINC-COVINGTON PTCLDY    70  67  90 S5        30.09S
CINC-LUNKEN    PTCLDY    68  67  96 CALM      30.09R
HAMILTON       PTCLDY    67  65  93 CALM      30.10R FOG
DAYTON         NOT AVBL
WRIGHT-PAT AFB CLEAR     69  65  89 S2        30.09R
DAYTON GENERAL CLEAR     69  64  84 CALM      30.09R
WILMINGTON     CLEAR     67  64  90 S5        30.10R
$$

OHZ036-037-039>041-045>050-054>059-063>069-073>076-082>088-310600-
  CENTRAL AND SOUTHEAST OHIO

CITY           SKY/WX    TMP DP  RH WIND       PRES   REMARKS
COLUMBUS       PTCLDY    71  66  84 CALM      30.09R
OSU AIRPORT    CLEAR     68  64  87 CALM      30.10R
BOLTON FIELD   NOT AVBL
RICKENBACK AFB NOT AVBL
NEWARK         CLEAR     68  66  93 CALM      30.10R
MARION         CLEAR     68  66  93 S7        30.09R FOG
LANCASTER      PTCLDY    66  64  93 CALM      30.10S
ZANESVILLE     PTCLDY    69  64  84 S3        30.10S
NEW PHILLY     MOCLDY    67  65  93 E3        30.10F
$$


USA.gov is the U.S. government's official web portal to all federal, state and local government web resources and services.